Flag for Morocco Weather past 2 weeks in Marrakech, Morocco

Now
88 °F

Passing clouds.


Feels Like: 85 °F
Forecast: 61 / 92 °F
Wind: 3 mph from Northeast

Location: Marrakech Airport

Current Time: Apr 1, 2015 at 2:40:51 PM

Latest Report: Apr 1, 2015 at 2:00 PM


Visibility: N/A

Pressure: 30.12 "Hg

Humidity: 22%

Dew point: 45 °F

Location of MarrakechLocation

Historic Weather in Marrakech — Graph

°F

Marrakech temperature yesterday

Maximum temperature yesterday: 86 °F (at 5:00 PM)
Minimum temperature yesterday: 55 °F (at 6:30 AM)
Average temperature yesterday: 71 °F

Past Weeks' High & Low Weather Summary

 TemperatureHumidityPressure
High88 °F (Apr 1, 1:30 PM)100% (Mar 18, 4:30 AM)30.36 "Hg (Mar 18, 4:30 AM)
Low46 °F (Mar 18, 4:30 AM)27% (Mar 31, 5:00 PM)29.68 "Hg (Mar 19, 3:30 PM)
Average60 °F74%30.04 "Hg
* Reported Mar 17 12:00 Noon — Apr 1 1:30 PM, Marrakech, Weather by CustomWeather, © 2015

Note: Actual official high and low records may vary slightly from our data, if they occured in-between our weather recording intervals... More about our weather records

Advertising

Marrakech weather history for previous 24 hours

 ConditionsComfort  
Time TempWeatherWind HumidityBarometerVisibility
1:30 PM
Wed, Apr 1
88 °FSunny.2 mph27%30.15 "Hg10 mi
1:00 PM86 °FSunny.2 mph31%30.15 "Hg10 mi
12:30 PM84 °FSunny.3 mph35%30.18 "Hg10 mi
12:00 PM82 °FPassing clouds.5 mph42%30.18 "HgN/A
11:30 AM81 °FPassing clouds.3 mph45%30.18 "HgN/A
11:00 AM77 °FPassing clouds.5 mph47%30.18 "HgN/A
10:30 AM75 °FPassing clouds.5 mph50%30.21 "HgN/A
10:00 AM72 °FPassing clouds.5 mph57%30.21 "HgN/A
9:30 AM68 °FPassing clouds.5 mph69%30.21 "HgN/A
9:00 AM64 °FPassing clouds.5 mph83%30.18 "HgN/A
8:30 AM61 °FPassing clouds.3 mph100%30.18 "HgN/A
8:00 AM59 °FPassing clouds.6 mph100%30.18 "HgN/A
7:30 AM57 °FSunny.3 mph100%30.18 "Hg10 mi
7:00 AM57 °FSunny.3 mph100%30.18 "Hg10 mi
6:30 AM59 °FSunny.No wind100%30.18 "Hg10 mi
6:00 AM59 °FClear.1 mph100%30.18 "Hg10 mi
5:30 AM61 °FClear.2 mph94%30.18 "Hg10 mi
5:00 AM61 °FClear.5 mph100%30.18 "Hg10 mi
4:30 AM61 °FClear.3 mph94%30.18 "Hg10 mi
4:00 AM63 °FClear.5 mph94%30.18 "Hg10 mi
3:30 AM61 °FCool.5 mph94%30.21 "HgN/A
3:00 AM63 °FClear.6 mph88%30.21 "Hg10 mi
2:30 AM63 °FClear.6 mph83%30.21 "Hg10 mi
2:00 AM63 °FClear.No wind88%30.21 "Hg10 mi
1:30 AM61 °FClear.5 mph94%30.21 "Hg10 mi
1:00 AM63 °FClear.6 mph88%30.21 "Hg10 mi
12:30 AM64 °FClear.3 mph83%30.24 "Hg10 mi
12:00 AM70 °FClear.3 mph60%30.24 "Hg10 mi
11:30 PM
Tue, Mar 31
70 °FClear.5 mph60%30.24 "Hg10 mi
11:00 PM73 °FClear.3 mph53%30.24 "Hg10 mi
10:30 PM73 °FClear.3 mph53%30.24 "Hg10 mi
10:00 PM72 °FClear.2 mph53%30.24 "Hg10 mi
9:30 PM75 °FClear.2 mph50%30.24 "Hg10 mi
9:00 PM75 °FPassing clouds.3 mph47%30.21 "HgN/A
8:30 PM77 °FClear.5 mph44%30.21 "Hg10 mi
8:00 PM81 °FClear.5 mph37%30.21 "Hg10 mi
7:30 PM82 °FClear.5 mph37%30.21 "Hg10 mi
7:00 PM84 °FPassing clouds.3 mph35%30.21 "HgN/A
6:30 PM86 °FPassing clouds.5 mph27%30.21 "HgN/A
6:00 PM86 °FSunny.1 mph31%30.21 "Hg10 mi
5:30 PM86 °FPassing clouds.3 mph29%30.21 "HgN/A
5:00 PM86 °FSunny.1 mph27%30.21 "Hg10 mi
4:30 PM84 °FPassing clouds.3 mph31%30.21 "HgN/A
4:00 PM84 °FPassing clouds.5 mph31%30.21 "HgN/A
3:30 PM84 °FSunny.3 mph33%30.21 "Hg10 mi
3:00 PM82 °FSunny.2 mph35%30.24 "Hg10 mi
2:30 PM82 °FSunny.1 mph32%30.24 "Hg10 mi
2:00 PM81 °FPassing clouds.5 mph39%30.24 "HgN/A
Weather by CustomWeather, © 2015

See weather overviewHow to use our weather pages